Regional Weather Roundup
Issued by NWS

Home | Current Version | Previous Version | Text Only | Print | Product List | Glossary Off
Versions: 1 2 3 4 5 6 7 8 9 10 11 12 13 14 15 16 17 18 19 20 21 22 23 24 25 26 27 28 29 30 31 32 33 34 35 36 37 38 39 40 41 42 43 44 45 46 47 48 49 50

000
ASUS43 KLMK 260802
RWRKY
KENTUCKY REGIONAL WEATHER ROUNDUP
NATIONAL WEATHER SERVICE LOUISVILLE KY
400 AM EDT SUN APR 26 2015

NOTE "FAIR" INDICATES FEW OR NO CLOUDS BELOW 12,000 FEET
WITH NO SIGNIFICANT WEATHER AND/OR OBSTRUCTIONS TO VISIBILITY.

KYZ001>023-026-027-061>063-070>075-260900-
WESTERN AND SOUTH CENTRAL KENTUCKY

CITY           SKY/WX    TMP DP  RH WIND       PRES   REMARKS
PADUCAH        CLOUDY    54  51  90 N14       29.69R
HENDERSON      CLOUDY    48  45  87 NE9       29.71R
OWENSBORO      CLOUDY    49  47  93 NE9       29.70S
HOPKINSVILLE   DRIZZLE   58  58  97 NW9       29.64R FOG
BOWLING GREEN  CLOUDY    55  52  89 N7        29.64R
GLASGOW        NOT AVBL
$$

KYZ024-025-028>034-038-045-046-053-260900-
NORTH CENTRAL KENTUCKY

CITY           SKY/WX    TMP DP  RH WIND       PRES   REMARKS
LOUISVILLE/SDF DRIZZLE   47  43  86 NE9       29.71R
LOUISVILLE/LOU CLOUDY    46  43  89 NE7       29.71R
FORT KNOX      CLOUDY    46  44  93 NE9       29.67S
$$

KYZ035>037-039>044-047>052-055>060-089>105-260900-
NORTHEAST KENTUCKY

CITY           SKY/WX    TMP DP  RH WIND       PRES   REMARKS
LEXINGTON      LGT RAIN  44  42  93 NE14      29.67R
COVINGTON      CLOUDY    44  38  79 N10       29.71S
FRANKFORT      CLOUDY    45  42  89 N7G18     29.68R
$$

KYZ054-064>069-076>088-106>120-260900-
SOUTHEAST KENTUCKY

CITY           SKY/WX    TMP DP  RH WIND       PRES   REMARKS
JACKSON        LGT RAIN  45  44  97 VRB3      29.62R FOG
LONDON         CLOUDY    54  50  86 N6        29.60R FOG
SOMERSET       NOT AVBL
MIDDLESBORO    CLOUDY    57  57 100 CALM      29.59R
MONTICELLO     CLOUDY    56  56 100 N10       29.64R FOG
$$



USA.gov is the U.S. government's official web portal to all federal, state and local government web resources and services.